Weather in Sholokhovo

Russia / Novgorod Oblast     58°30′57″N   31°21′48″E
temp.,
°C
wind,
m/s
gust,
m/s
humid.,
%
clouds,
%
prec.,
mm/h
press.,
hPa
HPBL,
m
7 march, sun
sun700:00−1sw81694100 1.6 9961100
03:00−1wsw81693100 3.1 9921093
06:00−3wnw81484100 1.5 9901187
09:00−5w6126067 1.5 9911300
12:00−4w6106767 0.1 9911357
15:00−3wnw6114783 0.6 9911988
18:00−5nw496811 0.1 992655
21:00−7wnw5137726 0.1 994595
8 march, mon
mon800:00−7nw61277100 0.0 995734
03:00−7nnw5118199 0.1 998857
06:00−9nnw61183100 0.1 1001762
09:00−9n61182100 0.1 1005736
12:00−9n5976100 0.0 1007760
15:00−7nnw5972100 0.0 1010800
18:00−9n497552 0.0 1012643
21:00−12n488726 0.0 1015451
9 march, tue
tue900:00−13n269166 0.0 1016324
03:00−14nnw259433 0.0 1017238
06:00−15n249533 0.0 1019198
09:00−15n238744 0.0 1020273
12:00−11nne126516 0.0 1020574
15:00−9ene125615 0.0 1021779
18:00−11e2364100 0.0 1020543
21:00−12e4675100 0.0 1021345
10 march, wed
wed1000:00−13e4878100 0.0 1022348
03:00−14e4977100 0.0 1022363
06:00−16e488037 0.0 1023261
09:00−15e477218 0.0 1024255
12:00−10e46587 0.0 1025414
15:00−8e475554 0.0 1024742
18:00−9e376893 0.0 1024453
21:00−11e4107893 0.0 1024345
11 march, thu
thu1100:00−13ese498170 0.0 1023328
03:00−14ese4107937 0.0 1022346
06:00−14ese498158 0.0 1021389
09:00−12ese488773 0.1 1019431
12:00−9se4781100 0.1 1016496
15:00−5se4880100 0.1 1013524
18:00−3se5119592 0.1 1009486
21:00−3sse7158196 0.2 1006760